This demonstration page uses our WeatherBlox Daily Observations layout. Learn more.

Left ArrowRight Arrow

Hourly Observations for June 27, 2022

Temp ( °F °C ) Dew Point ( °F °C ) Humidity (%) Winds ( mph kmh ) Pressure ( in mb ) Visibility ( mi km ) Precip ( " mm )
12:15 am 00:15 Clear 60 15.7 48 9.1 65 65 S 7 11 30.32 1027 10 16 0.00 0.00
12:35 am 00:35 Clear 57 14.1 49 9.4 74 74 SW 6 9 30.34 1027 10 16 0.00 0.00
12:55 am 00:55 Clear 57 14.1 48 9 72 72 WSW 5 7 30.34 1027 10 16 0.00 0.00
1:15 am 01:15 Clear 59 15 47 8.3 64 64 SW 5 7 30.33 1027 10 16 0.00 0.00
1:35 am 01:35 Clear 58 14.5 47 8.5 67 67 SW 3 6 30.33 1027 10 16 0.00 0.00
1:55 am 01:55 Partly Cloudy 58 14.6 47 8.3 66 66 Calm 30.33 1027 10 16 0.00 0.00
2:15 am 02:15 Cloudy 57 14 49 9.4 74 74 Calm 30.34 1027 10 16 0.00 0.00
2:35 am 02:35 Mostly Cloudy 57 13.8 50 9.9 78 78 Calm 30.34 1027 10 16 0.00 0.00
2:55 am 02:55 Cloudy 57 13.9 50 10.1 78 78 Calm 30.33 1027 10 16 0.00 0.00
3:15 am 03:15 Mostly Cloudy 57 13.7 51 10.3 80 80 Calm 30.32 1027 10 16 0.00 0.00
3:35 am 03:35 Mostly Cloudy 57 13.9 51 10.6 81 81 Calm 30.32 1027 10 16 0.00 0.00
3:55 am 03:55 Clear 56 13.4 51 10.3 82 82 Calm 30.32 1027 10 16 0.00 0.00
4:15 am 04:15 Clear 56 13.5 49 9.4 76 76 Calm 30.33 1027 10 16 0.00 0.00
4:35 am 04:35 Clear 55 12.9 49 9.3 79 79 S 3 6 30.34 1027 10 16 0.00 0.00
4:55 am 04:55 Clear 54 12.3 49 9.2 82 82 Calm 30.35 1028 10 16 0.00 0.00
5:15 am 05:15 Clear 53 11.8 48 9.1 84 84 Calm 30.36 1028 10 16 0.00 0.00
5:35 am 05:35 Clear 54 12.3 48 8.8 79 79 Calm 30.34 1028 10 16 0.00 0.00
5:55 am 05:55 Mostly Cloudy 53 11.9 49 9.4 85 85 Calm 30.35 1028 10 16 0.00 0.00
6:15 am 06:15 Cloudy 55 12.5 50 10.2 86 86 Calm 30.35 1028 10 16 0.00 0.00
6:35 am 06:35 Cloudy 56 13.2 50 9.9 81 81 Calm 30.34 1028 10 16 0.00 0.00
6:55 am 06:55 Cloudy 57 13.7 51 10.5 81 81 Calm 30.34 1027 10 16 0.00 0.00
7:15 am 07:15 Cloudy 57 14.1 51 10.6 80 80 Calm 30.34 1027 10 16 0.00 0.00
7:35 am 07:35 Cloudy 58 14.5 51 10.8 79 79 Calm 30.33 1027 10 16 0.00 0.00
7:55 am 07:55 Mostly Cloudy 60 15.4 50 10.2 71 71 Calm 30.33 1027 10 16 0.00 0.00
8:15 am 08:15 Mostly Cloudy 61 16 51 10.3 69 69 Calm 30.33 1027 10 16 0.00 0.00
8:35 am 08:35 Mostly Cloudy 63 17.1 49 9.3 60 60 Calm 30.32 1027 10 16 0.00 0.00
8:55 am 08:55 Mostly Cloudy 65 18.3 48 8.8 54 54 Calm 30.32 1027 10 16 0.00 0.00
9:15 am 09:15 Cloudy 65 18.6 52 10.9 61 61 SE 3 6 30.32 1027 10 16 0.00 0.00
9:35 am 09:35 Cloudy 67 19.5 48 9 51 51 Calm 30.30 1026 10 16 0.00 0.00
9:55 am 09:55 Cloudy 68 20 46 7.8 45 45 S 3 6 30.30 1026 10 16 0.00 0.00
10:15 am 10:15 Cloudy 68 20 47 8.4 47 47 S 5 7 30.30 1026 10 16 0.00 0.00
10:35 am 10:35 Cloudy 70 21 47 8.2 44 44 S 3 6 30.29 1026 10 16 0.00 0.00
10:55 am 10:55 Cloudy 70 21.3 46 7.7 42 42 S 5 7 30.28 1025 10 16 0.00 0.00
11:15 am 11:15 Cloudy 72 22 47 8.2 41 41 S 5 7 30.27 1025 10 16 0.00 0.00
11:35 am 11:35 Cloudy 72 22.3 46 7.9 40 40 S 6 9 30.27 1025 10 16 0.00 0.00
11:55 am 11:55 Cloudy 73 23 46 8 38 38 S 7 11 30.25 1024 10 16 0.00 0.00
12:15 pm 12:15 Cloudy 74 23.5 46 8 37 37 S 13 20 30.25 1024 10 16 0.00 0.00
12:35 pm 12:35 Cloudy 74 23.6 46 7.9 37 37 S 10 17 30.24 1024 10 16 0.00 0.00
12:55 pm 12:55 Cloudy 76 24.3 47 8.2 36 36 S 10 17 30.23 1024 10 16 0.00 0.00
1:15 pm 13:15 Cloudy 76 24.6 47 8.1 35 35 SSE 14 22 30.22 1023 10 16 0.00 0.00
1:35 pm 13:35 Cloudy 77 25.2 47 8.4 34 34 S 15 24 30.20 1023 10 16 0.00 0.00
1:55 pm 13:55 Cloudy 78 25.6 48 8.7 34 34 S 12 19 30.19 1022 10 16 0.00 0.00
2:15 pm 14:15 Partly Cloudy 79 25.9 48 9 34 34 S 15 24 30.18 1022 10 16 0.00 0.00
2:35 pm 14:35 Sunny 78 25.8 45 7.2 31 31 S 12 19 30.17 1022 10 16 0.00 0.00
2:55 pm 14:55 Partly Cloudy 78 25.6 46 7.7 32 32 S 12 19 30.16 1021 10 16 0.00 0.00
3:15 pm 15:15 Partly Cloudy 79 26.1 46 8 32 32 S 13 20 30.16 1021 10 16 0.00 0.00
3:35 pm 15:35 Sunny 78 25.5 46 7.9 33 33 S 10 17 30.15 1021 10 16 0.00 0.00
3:55 pm 15:55 Sunny 79 26 47 8.2 32 32 S 14 22 30.14 1021 10 16 0.00 0.00
4:15 pm 16:15 Sunny 80 26.8 48 8.9 32 32 S 16 26 30.12 1020 10 16 0.00 0.00
4:35 pm 16:35 Sunny 79 26.1 46 7.8 31 31 S 14 22 30.12 1020 10 16 0.00 0.00
4:55 pm 16:55 Sunny 80 26.4 46 7.5 30 30 S 18 30 30.10 1019 10 16 0.00 0.00
5:15 pm 17:15 Sunny 79 26.3 45 7.4 30 30 S 16 26 30.10 1019 10 16 0.00 0.00
5:35 pm 17:35 Sunny 78 25.7 47 8.3 33 33 S 14 22 30.10 1019 10 16 0.00 0.00
5:55 pm 17:55 Sunny 78 25.6 46 7.9 32 32 S 15 24 30.10 1019 10 16 0.00 0.00
6:15 pm 18:15 Sunny 78 25.8 47 8.3 33 33 S 16 26 30.10 1019 10 16 0.00 0.00
6:35 pm 18:35 Sunny 78 25.4 46 8 33 33 S 15 24 30.10 1019 10 16 0.00 0.00
6:55 pm 18:55 Sunny 79 25.9 46 7.6 31 31 S 16 26 30.09 1019 10 16 0.00 0.00
7:15 pm 19:15 Sunny 78 25.3 44 6.8 31 31 SSW 14 22 30.09 1019 10 16 0.00 0.00
7:35 pm 19:35 Sunny 77 24.8 46 7.5 33 33 SSW 9 15 30.11 1020 10 16 0.00 0.00
7:55 pm 19:55 Sunny 75 24 46 7.6 35 35 SSW 10 17 30.11 1020 10 16 0.00 0.00
8:15 pm 20:15 Sunny 74 23.3 46 8 38 38 SSW 12 19 30.12 1020 10 16 0.00 0.00
8:35 pm 20:35 Sunny 72 22.3 46 7.8 39 39 SSW 12 19 30.13 1020 10 16 0.00 0.00
8:55 pm 20:55 Sunny 70 21.2 46 7.6 42 42 SSW 12 19 30.14 1021 10 16 0.00 0.00
9:15 pm 21:15 Clear 68 20.1 46 7.8 45 45 SSW 9 15 30.16 1021 10 16 0.00 0.00
9:35 pm 21:35 Clear 66 18.7 47 8.2 51 51 SSW 8 13 30.17 1022 10 16 0.00 0.00
9:55 pm 21:55 Clear 64 18 47 8.3 53 53 SSW 8 13 30.18 1022 10 16 0.00 0.00
10:15 pm 22:15 Clear 63 17.3 47 8.3 56 56 SSW 9 15 30.19 1022 10 16 0.00 0.00
10:35 pm 22:35 Clear 63 17.2 47 8.3 56 56 SSW 14 22 30.20 1023 10 16 0.00 0.00
10:55 pm 22:55 Clear 63 17 47 8.4 57 57 SSW 14 22 30.19 1022 10 16 0.00 0.00
11:15 pm 23:15 Clear 62 16.8 47 8.3 57 57 SSW 13 20 30.19 1022 10 16 0.00 0.00
11:35 pm 23:35 Clear 62 16.4 47 8.5 60 60 SSW 12 19 30.19 1022 10 16 0.00 0.00
11:55 pm 23:55 Clear 60 15.7 47 8.5 62 62 SSW 9 15 30.19 1022 10 16 0.00 0.00

Powered by AerisWeather